Location: Milo
(50.5667°N, 112.8833°W)
Time: 06:56:27
(UTC+00:00)

N. Korean satellite - Pass Details

Date: 03 December 2021
Orbit: 446 x 491 km, 97.3° (Epoch: 18 January)

Event Time Altitude Azimuth Distance (km) Brightness Sun altitude
Rises 13:01:58 0° 12° (NNE) 2,477 10.2 -20.0°
Reaches altitude 10° 13:04:01 10° 11° (N) 1,594 9.2 -19.6°
Maximum altitude 13:07:25 79° 285° (WNW) 463 6.2 -19.1°
Drops below altitude 10° 13:10:47 10° 198° (SSW) 1,571 9.1 -18.6°
Sets 13:12:48 0° 197° (SSW) 2,438 10.1 -18.3°
